CAPE
1278 1330 1466 1741 1896 2116 1433 1551 1974 1309 1455 621 1586 1365 1416 1322 1415 1633 1726 1416 1724 1611 1736 1509 1643 1911 1564 715 323 398 427 327 387 469 370 230 868 730 1558 1621 1413 1453 1265
1138 1648 1675 1627 1724 1588 1899 1329 1677 1748 1522 1994 1531 2208 2417 2229 2017 1701 1717 967 1390 1155 1556 1501 1666 1783 1690 1541 1220 849 558 856 448 563 924 954 920 836 1240 1226 949 939 1201
1368 1617 1375 1253 1406 1417 1379 1437 1375 1841 2038 1252 1720 2081 2154 2041 1945 1834 1826 1773 1591 1542 1590 1889 1747 1649 1616 1253 1268 1429 1006 856 900 881 870 499 540 521 450 956 991 799 918
1255 1252 1483 1437 1301 1288 1408 1551 1571 1730 2071 1877 1830 2024 2097 1923 1858 2152 1959 1828 1870 2059 1983 2029 1834 1678 1621 1346 1254 1288 1092 993 1102 783 775 545 436 431 441 364 496 617 976
1036 1289 1468 1784 1633 1488 1430 1427 1636 1783 1929 1985 1718 1980 1975 2251 1927 2189 2256 2068 1781 1820 1926 1707 1336 1896 1790 1582 1484 1335 1174 785 500 325 242 206 235 285 711 692 715 739 898
1163 1460 1473 1930 1928 1929 1722 1818 1714 1967 1911 2085 1943 2069 1953 1667 1243 1304 2038 1796 1626 1772 1840 2033 1498 1180 1267 1138 1086 809 813 770 834 859 451 339 630 772 940 818 978 740 668
657 1183 1130 1817 1813 1624 1732 1896 1830 2104 2355 2194 2364 2189 1978 2053 1396 1083 1172 1529 1655 1893 1739 1267 1486 960 870 1198 1009 772 677 673 796 849 818 670 958 994 986 729 436 402 502
983 864 812 1236 1420 1620 1659 1780 1779 2027 2390 2312 2451 2379 2255 2132 1844 1166 924 1293 1594 1727 1665 1487 1459 1646 1820 1536 1295 1206 1291 1268 772 625 675 710 532 409 137 109 88 109 103
1340 670 258 697 1287 1342 1403 1664 1866 1997 2057 2236 2302 2272 2418 2015 1670 1199 906 1317 1036 1285 1435 1578 1553 1456 1576 1088 1163 1090 1002 1066 614 201 134 81 101 45 1 14 47 92 37
1162 1148 834 387 230 514 989 1372 1453 1319 1289 1475 1895 1898 1962 2049 1907 959 801 1387 1250 1043 944 1098 935 1183 1191 840 1240 1137 944 831 710 438 346 321 293 352 172 85 199 141 207
1020 1261 1279 1356 1385 1251 986 875 1153 1097 1324 1322 1463 1400 1376 1591 1671 477 527 1474 1217 922 904 1304 822 284 407 396 260 888 618 488 649 368 194 282 320 401 360 302 225 49 50
1290 1500 1470 1543 1410 1334 1009 1011 1116 961 1075 1308 878 721 685 811 282 9 84 307 590 945 645 335 527 26 0 0 0 0 0 1 34 69 112 245 360 260 192 138 87 40 30
763 1024 721 598 601 1140 1324 1170 1031 760 685 148 108 0 13 40 0 0 0 0 1 43 133 78 60 1 0 0 0 0 0 0 13 147 192 273 223 164 159 103 152 164 156
55 201 170 220 158 124 179 210 128 86 68 35 3 0 0 10 41 4 0 0 0 0 7 43 19 0 0 0 0 0 0 18 161 263 282 181 123 83 58 62 57 74 125
0 19 0 10 69 25 0 0 19 0 0 23 9 12 0 0 16 73 2 25 31 8 26 62 12 0 3 1 0 0 10 43 30 109 102 77 20 0 0 0 5 11 39
329 223 224 241 213 60 17 3 0 0 0 0 0 3 0 0 0 0 0 0 0 5 69 76 98 44 15 2 1 1 10 10 46 55 23 5 1 0 0 0 0 0 0
0 4 0 3 1 2 20 2 0 0 0 0 0 0 0 0 0 0 0 0 0 0 22 97 49 39 35 21 0 0 0 0 0 0 0 0 0 0 0 0 0 0 0
0 0 0 2 0 0 0 0 0 0 3 0 0 0 0 0 0 0 0 0 0 0 2 20 5 6 15 5 0 0 0 0 0 0 0 0 0 0 0 0 0 0 0
1 12 1 0 0 0 0 0 0 0 0 0 1 0 0 0 0 0 0 2 40 23 23 41 7 0 0 0 0 0 0 0 0 0 0 0 0 0 0 0 0 0 0
0 0 0 0 0 0 0 0 0 0 0 0 0 0 0 0 0 1 0 4 13 14 9 25 51 6 0 0 0 0 0 0 0 0 0 0 0 0 0 0 0 0 0
0 0 0 0 0 0 0 0 0 0 0 0 0 0 0 0 0 0 0 16 26 40 33 20 47 55 7 2 0 0 0 0 0 0 0 0 0 0 0 0 0 0 0
0 0 0 0 0 0 0 0 0 0 0 0 0 0 0 0 0 0 0 0 0 6 13 35 26 31 50 36 25 3 0 0 0 0 0 0 0 0 0 0 0 0 0
0 0 0 0 0 0 0 0 0 0 0 0 0 0 0 0 0 0 0 0 0 0 0 3 19 20 23 30 68 23 0 0 0 0 0 0 0 0 0 0 0 0 0
0 0 0 0 0 0 0 0 0 0 0 0 0 0 0 0 0 0 0 0 0 0 0 0 0 3 4 15 51 76 63 13 32 12 10 8 3 1 1 0 8 17 8
0 0 0 0 0 0 0 0 0 0 0 0 0 0 0 0 0 0 0 0 0 0 1 2 2 6 14 29 41 30 12 11 10 1 3 3 0 5 6 5 11 12 18
0 0 0 1 3 1 0 0 0 0 0 0 0 0 0 0 0 1 0 1 3 2 3 0 1 3 10 15 21 2 2 2 1 0 12 20 11 0 1 4 20 26 4
CIN
-6 -10 -16 -14 -16 -18 -13 -3 0 -5 -1 -16 -3 -6 -5 -10 -8 -1 -1 -2 -1 -2 -2 -2 -1 -2 -1 -2 -4 -3 -5 -14 -18 -6 -9 -15 -9 -5 0 -1 -1 -2 -3
-23 -1 -5 -13 -8 -20 -22 -21 -2 0 -1 -1 -3 -1 -1 -1 -2 -2 -1 -1 -4 -7 -2 -2 -1 -2 -3 -5 -6 -3 -3 -5 -6 -2 -2 -5 -2 -2 -2 -7 -18 0 -1
-8 -7 -2 -17 -19 -15 -19 -31 -24 -2 0 -2 -1 -1 -2 -3 -2 -3 -3 -1 -1 -1 -1 -2 -6 -4 -7 -5 -9 -5 -1 -1 -2 -3 -8 -16 -19 -25 -42 -15 -3 -9 -9
-7 -4 -2 -1 -19 -26 -9 -3 -15 -6 0 0 0 -1 -1 -5 -3 -1 -2 -3 -3 -1 -1 -1 -1 -6 -8 -15 -8 -11 -10 -7 -2 -7 -4 -2 -4 -4 -5 -8 -4 -2 -7
-7 -3 -4 -2 -1 -2 -2 -15 -16 -11 -1 0 -1 0 -1 0 -1 -1 -1 -5 -4 -8 -4 -1 -1 -4 -3 -6 -2 -3 -3 -8 -1 -2 -4 -2 -8 -3 -6 -10 -2 -4 -2
-15 -2 -6 -2 0 -1 -1 0 -5 -6 -22 -1 0 0 0 -2 -3 -7 -3 -3 0 -5 -13 -5 -1 -4 -11 -15 -20 -22 -17 -15 -9 -1 -8 -9 -10 -2 -2 -5 -9 -4 -5
-74 -25 -11 -3 -5 -8 -5 -1 -2 -1 0 -2 0 0 -1 -1 -4 -13 -16 -8 -3 -3 -5 -18 -2 -2 -4 -5 -22 -36 -49 -45 -25 -9 -9 -27 -2 -2 -1 -1 -4 -3 -3
-29 -52 -67 -18 -5 -7 -6 -5 -6 -3 0 -1 -1 -1 -1 -1 -3 -17 -22 -7 -2 -4 -5 -2 -2 -2 -1 -4 -5 -9 -13 -5 -10 -14 -13 -10 -17 -35 -79 -82 -68 -16 -15
-1 -85 -214 -144 -46 -9 -10 -5 -4 -1 -1 -1 -2 -3 -1 -26 -9 -11 -23 -7 -3 -3 -2 -2 0 -2 -5 -22 -13 -10 -10 -14 -7 -28 -98 -132 -143 -162 -5 -85 -91 -3 -13
-9 -10 -62 -183 -236 -17 -28 -17 -22 -7 -7 -3 -3 -6 -10 -6 -22 -56 -31 -1 -1 -1 -1 -2 -14 -9 -11 -37 -7 -5 -6 -15 -2 -17 -27 -68 -56 -63 -119 -124 -7 0 -1
-16 -8 -2 -7 -5 -24 -88 -62 -27 -19 -5 -6 -3 -5 -4 -18 -8 -114 -85 -8 -3 -2 -4 -5 -41 -114 -89 -81 -105 -18 -13 -50 -7 -34 -37 -13 -5 -34 -53 -33 -1 -11 -13
-1 -1 -1 -3 -4 -4 -16 -15 -6 -5 -1 -1 -10 -17 -38 -11 -100 -174 -119 -89 -24 -2 -2 -3 -36 -170 0 0 0 0 0 -136 -132 -111 -60 -3 -11 -37 -30 -32 -32 -43 -40
-26 0 -45 -103 -99 -10 -1 -1 0 -9 -6 -137 -83 -10 -154 -187 0 0 0 0 -16 -50 -14 -104 -104 -20 0 0 0 0 0 -62 -111 -36 -8 -2 -20 -49 -58 -58 -34 -37 -39
-147 -140 -159 -153 -172 -164 -155 -94 -105 -90 -114 -121 -139 0 0 -2 -8 -1 0 0 0 0 -87 -55 -90 0 0 0 0 0 0 -91 -6 -8 -12 -32 -38 -60 -73 -69 -67 -52 -23
0 -47 -2 -226 -168 -281 0 0 -165 0 0 -10 -4 -8 0 -1 -6 -1 -4 -8 -14 -22 -26 -6 -67 -67 -116 0 0 0 -33 -16 -37 -5 -11 -45 -75 -4 0 0 -51 -54 -37
-5 -5 -13 -12 -14 -86 -116 -11 0 0 0 0 0 -24 0 0 0 0 0 0 0 -87 -20 -16 -1 -36 -56 -81 0 -9 -2 -5 -50 -9 -20 -75 -126 -4 0 0 0 0 0
0 -2 0 -4 0 -3 -114 -7 0 0 0 0 0 0 0 0 0 0 0 0 0 0 -34 -1 -6 -36 -22 -34 -1 -1 -1 -1 0 0 -1 0 0 0 0 0 0 0 0
0 0 0 -1 0 0 0 0 0 -9 -2 -4 0 0 0 0 0 0 0 0 0 0 -28 -17 -27 -21 -7 -17 0 0 0 0 0 0 0 0 0 0 0 0 0 0 0
-28 -28 -3 0 0 0 0 0 0 0 0 0 -22 0 0 0 0 0 0 -5 -7 -10 -35 -6 -27 0 0 0 0 0 0 0 0 0 0 0 0 0 0 0 0 0 0
0 0 0 0 0 0 -1 -1 0 0 0 0 0 0 0 0 0 -17 0 -26 -13 -3 -5 -3 -16 -23 0 0 0 0 0 0 0 0 0 0 0 0 0 0 0 0 0
0 0 0 0 0 0 0 0 0 0 0 0 0 0 0 0 0 0 0 -4 -24 -2 -2 -2 -5 -6 -22 -18 0 0 0 0 0 0 0 0 0 0 0 0 0 0 0
0 0 0 0 0 0 0 0 0 0 0 0 0 0 0 0 0 0 0 0 0 -2 -1 -2 -2 -2 -12 -8 -4 -15 0 0 0 0 0 0 0 0 0 0 0 0 0
0 0 0 0 0 0 0 0 0 0 0 0 0 0 0 0 0 0 0 0 0 0 0 -3 -2 -2 -1 -2 -10 -7 0 -2 0 0 0 0 0 0 0 0 0 0 0
0 0 0 0 0 0 0 0 0 0 0 0 0 0 0 0 0 0 0 0 0 0 0 0 -1 -4 -7 -13 -5 -3 -15 -53 -9 -2 -4 -1 -2 -12 -3 0 -3 -2 -3
0 0 0 0 0 0 0 0 0 0 0 0 0 0 0 0 0 0 0 0 0 0 -1 -3 -3 -3 -2 -1 -1 -9 -47 -53 -47 -7 -14 -7 -3 -3 -3 -4 -2 -3 -2
0 -1 -3 -4 -3 -2 -1 0 0 0 0 0 0 0 0 0 -2 -3 -2 -5 -4 -2 -3 -2 -1 -3 -3 -2 -3 -51 -38 -39 -22 0 -49 -31 -7 0 -2 -13 -3 -3 -3
Wind_Speed
17 20 20 19 19 19 21 20 21 20 17 19 14 12 11 10 10 10 10 14 16 8 8 18 24 20 21 25 24 22 21 19 24 29 33 30 32 28 25 25 22 21 16
19 21 21 22 22 20 21 20 18 19 20 17 19 17 14 12 11 11 11 10 9 10 9 12 15 17 16 14 17 20 25 30 29 27 25 24 24 25 24 27 22 20 18
22 20 24 24 23 23 21 22 21 21 21 19 18 19 18 16 14 13 12 12 12 11 8 9 12 13 17 21 25 23 22 22 27 30 33 30 29 30 25 21 20 18 18
23 23 25 28 27 23 24 22 23 23 23 24 23 21 21 19 18 17 15 15 15 13 13 15 18 17 16 16 18 20 21 23 25 27 25 27 27 28 23 22 22 26 20
28 27 27 23 25 27 25 23 22 23 23 23 24 24 21 21 20 19 19 18 16 16 18 17 17 18 14 14 21 21 25 28 30 32 35 35 36 37 38 38 37 27 23
34 32 30 30 30 31 29 26 24 22 22 23 23 24 24 23 21 20 20 19 17 17 17 18 17 21 18 18 18 18 23 24 28 31 33 35 39 41 40 42 41 38 32
37 35 33 29 30 33 32 31 28 27 25 23 23 23 25 25 26 23 21 22 24 20 17 18 15 21 20 17 15 15 18 19 20 26 33 34 39 40 39 39 37 33 29
39 36 36 36 34 36 35 31 28 25 25 25 24 25 25 27 27 26 25 24 23 23 24 27 26 27 29 30 29 26 19 22 25 25 25 30 34 35 36 36 35 33 31
35 36 39 37 34 38 37 34 32 31 30 28 29 27 27 28 30 27 27 27 27 25 25 24 25 25 27 28 30 29 29 31 32 26 23 27 30 30 32 34 35 36 34
37 30 29 31 37 49 38 33 33 36 36 35 33 31 29 32 31 31 29 29 29 27 26 25 25 24 26 27 29 27 27 28 27 26 27 30 28 27 29 25 30 34 32
38 34 28 25 26 29 33 32 32 34 36 31 29 32 36 34 40 33 29 30 32 32 32 30 26 23 22 22 24 25 25 28 25 25 27 27 28 27 30 26 27 27 26
34 29 28 26 26 26 27 29 33 28 30 29 31 30 35 41 37 32 28 27 23 24 25 27 26 24 25 23 25 28 31 33 30 28 28 26 25 29 30 29 27 24 20
32 27 23 21 23 23 24 22 21 22 23 24 24 28 31 29 32 22 19 20 18 21 23 23 22 22 25 29 29 28 28 30 29 26 23 24 24 27 26 26 22 21 22
24 22 22 21 18 16 16 16 17 20 21 20 19 21 18 19 27 26 20 22 21 21 23 24 23 22 25 30 29 24 25 25 26 27 26 23 23 22 23 23 24 24 25
19 18 16 16 15 14 15 15 15 16 20 22 24 22 21 22 24 21 18 19 21 20 22 23 25 25 29 26 27 25 22 22 25 22 19 18 18 20 21 22 24 25 25
22 16 15 13 13 11 10 12 13 14 15 17 18 17 13 14 14 16 12 16 17 20 21 20 21 18 20 20 21 24 22 20 22 19 22 20 20 21 22 25 25 26 26
13 13 11 8 10 11 10 9 10 13 14 15 14 15 14 11 13 14 15 14 11 8 10 14 17 14 17 18 18 19 19 19 21 21 24 23 23 24 25 25 25 27 28
15 19 3 2 3 5 5 6 10 12 11 13 13 12 12 12 12 13 14 13 12 13 12 13 13 16 17 17 17 18 17 17 19 22 22 22 22 23 23 25 26 27 29
8 10 3 3 5 5 5 8 9 11 11 13 13 15 15 15 15 14 14 15 16 13 16 19 19 20 19 20 21 20 20 19 20 22 22 23 24 25 25 25 27 28 28
10 10 10 9 8 9 9 9 10 12 13 13 14 17 17 16 16 14 16 18 19 23 21 22 21 21 19 20 21 21 21 21 22 22 22 22 23 24 26 26 27 28 29
14 16 16 12 12 12 12 14 15 16 17 18 17 18 21 21 21 22 22 19 22 24 22 23 21 18 18 20 21 21 24 25 22 23 24 22 23 26 25 26 28 28 29
17 18 18 16 15 15 15 16 16 18 18 19 20 19 21 22 23 24 24 24 26 25 26 27 26 24 22 20 19 20 23 24 24 24 25 24 23 24 26 25 25 27 27
17 17 19 21 21 18 17 18 18 19 19 19 20 22 23 23 24 24 25 26 26 26 28 30 29 27 28 27 23 24 25 25 22 23 25 25 25 25 25 27 27 28 28
19 19 19 19 20 20 21 21 21 19 21 22 23 23 23 23 25 25 26 26 27 27 28 28 29 32 32 32 30 25 26 30 30 24 23 25 26 25 26 27 27 28 28
20 20 20 20 20 21 22 22 23 24 24 24 25 26 27 27 27 27 27 26 27 29 29 29 28 28 28 28 29 32 27 25 26 26 27 26 30 32 30 30 31 32 32
22 22 22 23 23 25 25 26 26 27 27 27 28 29 29 29 29 29 29 29 29 29 30 30 30 30 31 31 31 26 26 27 28 27 29 30 31 31 32 32 32 32 30
Wind_Direction
236 243 243 241 242 246 253 255 260 259 263 261 264 258 256 249 254 262 268 289 298 275 287 301 301 308 311 311 315 320 323 328 324 324 325 332 332 338 342 345 348 349 349
241 248 244 247 248 246 248 250 249 256 259 259 259 266 263 258 258 263 269 271 264 269 283 301 305 308 312 314 321 322 318 315 320 327 334 339 340 339 340 338 343 346 348
247 245 249 246 246 245 246 250 250 252 255 254 257 260 261 263 260 261 267 276 282 284 269 281 298 304 307 310 311 319 323 325 323 324 324 328 331 331 333 335 339 339 341
251 249 252 251 249 245 251 251 252 253 255 257 260 258 259 263 265 268 268 275 281 278 283 294 303 304 304 306 314 316 319 320 323 325 328 328 330 331 331 332 336 341 339
266 254 254 249 250 254 251 248 249 252 255 258 260 261 259 260 263 266 271 275 270 277 286 290 297 299 293 295 307 314 314 315 317 319 320 322 322 323 322 323 323 330 334
272 265 257 257 257 258 256 254 252 252 253 257 257 258 259 259 257 256 264 270 270 271 276 283 290 298 297 296 298 300 308 314 316 316 319 319 317 317 319 316 318 321 322
270 269 265 259 258 259 259 257 257 256 258 256 258 258 260 261 264 265 258 266 276 284 282 276 287 295 295 295 291 295 305 311 315 318 316 318 317 318 320 320 324 326 323
268 266 266 266 264 263 262 260 257 256 256 259 259 262 265 265 264 264 266 270 271 273 280 285 290 293 294 297 301 308 307 312 316 317 318 319 319 321 320 324 330 330 327
273 267 264 265 264 265 263 265 265 264 265 264 265 266 265 268 271 263 262 266 270 272 276 280 283 287 292 295 297 300 301 305 309 312 316 320 322 325 325 327 328 326 323
275 271 272 264 262 260 269 267 270 270 271 271 272 270 271 273 269 266 261 264 269 273 277 278 283 282 286 291 294 296 298 302 308 310 314 315 319 328 328 334 329 324 321
276 272 268 264 261 262 265 267 269 271 272 276 275 279 279 276 278 268 258 262 268 274 278 282 287 295 292 293 296 296 300 304 306 311 313 315 316 322 319 330 332 335 336
276 272 270 267 266 267 266 270 267 270 271 278 282 286 287 290 273 268 266 266 264 268 276 285 288 290 293 297 296 295 295 296 302 306 309 312 316 309 312 317 327 339 349
273 275 272 273 275 275 275 276 280 287 286 288 292 290 295 283 284 293 266 287 258 277 285 288 292 293 295 293 296 297 297 293 297 296 304 310 318 308 314 319 336 340 339
275 269 269 272 278 284 288 290 290 292 295 292 292 299 305 291 292 278 300 294 282 288 285 289 293 296 297 292 293 299 298 296 288 289 297 307 311 312 314 322 325 332 330
265 270 265 264 272 283 291 296 303 307 294 292 293 300 295 294 290 304 301 296 296 290 289 289 293 295 290 292 290 290 294 295 287 294 302 306 311 314 318 322 322 324 325
266 259 263 266 274 281 286 300 318 318 311 309 310 321 333 330 335 313 327 306 301 303 299 300 299 300 294 296 285 283 286 291 294 301 298 303 307 312 314 315 317 318 321
294 254 246 262 273 276 286 301 313 334 342 337 331 327 333 347 336 329 325 327 345 1 335 325 307 300 291 288 289 287 288 294 299 297 299 301 305 307 310 313 316 317 317
285 266 277 305 275 286 306 332 333 336 342 318 321 327 351 350 327 332 354 351 2 331 349 330 310 297 295 299 300 298 300 305 299 299 302 304 308 309 312 314 313 315 318
231 225 310 49 2 4 342 339 324 304 313 331 350 341 335 326 331 344 340 325 326 336 311 296 295 292 295 294 293 295 298 304 305 304 305 307 308 308 308 313 313 313 316
306 312 333 350 339 349 348 335 340 344 347 351 346 332 326 326 322 328 318 305 306 292 296 291 291 290 301 299 297 297 300 302 302 304 303 307 310 312 310 311 312 314 315
356 360 7 343 334 330 328 322 319 318 324 321 322 323 316 307 308 303 304 312 303 297 299 306 309 301 306 306 304 303 301 300 304 303 302 306 310 308 312 313 313 314 316
2 5 5 359 349 342 334 335 330 334 330 317 308 319 321 309 304 301 307 309 305 305 301 298 301 303 303 302 301 302 302 303 300 302 302 306 310 310 309 311 314 315 316
347 348 6 12 29 9 330 339 340 324 321 326 321 319 315 313 309 309 307 309 307 308 305 300 299 300 301 302 299 296 297 298 300 298 298 301 303 305 306 308 310 311 313
344 342 346 354 348 337 354 343 343 337 328 329 328 326 324 324 316 314 310 308 309 308 308 306 302 300 300 300 301 303 300 302 301 298 290 295 301 304 302 305 307 309 311
355 355 357 352 352 342 334 330 330 322 321 323 320 317 315 316 316 316 317 317 314 311 309 309 309 309 307 307 304 300 307 304 300 300 305 295 295 298 299 301 303 307 307
329 335 332 330 331 328 324 321 319 318 318 318 317 316 316 316 316 316 316 316 315 314 315 313 310 309 307 306 303 306 306 307 305 302 295 291 292 293 296 299 301 304 302